TINTIN A (43216 NORAD) Tracking and Keplerian Element Data

This shows tracking and keplerian element data for the satellite.

Feedback or suggestion? Click here.




ElementValue
Catalog43216
NameTINTIN A
Epoch Orbit3991
Epoch Day316.45380195
Epoch Year2018
RAAN322.0269
Inclination97.4544
Eccentricity0.0015064
Argument of Perigee81.1817
Mean Anonmoly279.1123
Mean Motion15.1960929
Decay Rate1.124E-05
L11 43216U 18020B 18316.45380195 .00001124 00000-0 55880-4 0 9999
L22 43216 97.4544 322.0269 0015064 81.1817 279.1123 15.19609290 39916

Live tracking and technical data element details for TINTIN A (NORAD 43216). TINTIN A can be tracked NOW for your location showing map with azimuth and elevation plus other details from your city location.

Track the satellite on the map from your city or location and see movement details for azimuth, elevation, latitude, longitude, range, height, and movement on the map or in text.







IsCatalogInMostPopularTable: catalog: 43216, numindb: 181
Update: records affected: 1



GetName: 43216 TINTIN A

Hit Count: updated at: Mon, 12 Nov 2018 18:21:43 GMT